Date String (YYYY-MM-DD hh:mm:ss) UTC,Instrument flags,Ambient pressure (hPa),Sample flow (lpm),Bypass flow (lpm),Sample temperature (°C),Ambient temperature (°C),ASC tube jacket temperature (°C),LED temperature (°C),Box temperature (°C),Sample RH (%),Span deviation,Mass concentration (μg/m³),Mass concentration (μg/m³),Mass concentration (μg/m³)
DateTimeUTC,F1_M11,P_M11,Q1_M11,Q2_M11,T1_M11,T2_M11,T3_M11,T4_M11,T5_M11,U1_M11,ZSPAN_M11,X0_M11,X2_M11,X1_M11
2022-05-01 16:00:00,,0823.7,5.02,0.00,26.2,25.2,00.0,35.0,28.0,13.5,0000.0,0009.78,0005.43,0004.60
2022-05-01 16:01:00,,0823.6,4.98,0.00,26.2,25.3,00.0,35.0,28.0,13.4,0000.0,0009.89,0005.43,0004.58
2022-05-01 16:02:00,,0823.6,5.01,0.00,26.2,25.3,00.0,35.0,28.1,13.5,0000.0,0009.88,0005.42,0004.55
2022-05-01 16:03:00,,0823.6,4.99,0.00,26.2,25.3,00.0,35.1,28.1,13.7,0000.0,0009.77,0005.45,0004.56
2022-05-01 16:04:00,,0823.7,5.00,0.00,26.2,25.3,00.0,35.1,28.1,13.5,0000.0,0009.90,0005.46,0004.56
2022-05-01 16:05:00,,0823.7,5.00,0.00,26.3,25.4,00.0,35.1,28.1,13.4,0000.0,0010.26,0005.48,0004.57
2022-05-01 16:06:00,,0823.8,5.00,0.00,26.3,25.3,00.0,35.1,28.1,13.3,0000.0,0010.93,0005.51,0004.57
2022-05-01 16:07:00,,0823.7,5.00,0.00,26.3,25.3,00.0,35.1,28.1,13.3,0000.0,0011.01,0005.51,0004.57
2022-05-01 16:08:00,,0823.7,4.99,0.00,26.3,25.4,00.0,35.1,28.1,13.2,0000.0,0011.01,0005.59,0004.59
2022-05-01 16:09:00,,0823.7,5.00,0.00,26.3,25.4,00.0,35.1,28.2,13.3,0000.0,0011.07,0005.61,0004.61
2022-05-01 16:10:00,,0823.6,4.99,0.00,26.3,25.4,00.0,35.1,28.2,13.3,0000.0,0010.98,0005.62,0004.62
2022-05-01 16:11:00,,0823.7,4.99,0.00,26.3,25.4,00.0,35.2,28.2,13.3,0000.0,0010.88,0005.65,0004.65
2022-05-01 16:12:00,,0823.7,5.01,0.00,26.3,25.4,00.0,35.2,28.2,13.3,0000.0,0010.77,0005.63,0004.68
2022-05-01 16:13:00,,0823.7,4.99,0.00,26.3,25.4,00.0,35.2,28.2,13.2,0000.0,0011.29,0005.63,0004.70
2022-05-01 16:14:00,,0823.7,4.98,0.00,26.3,25.4,00.0,35.2,28.2,13.1,0000.0,0012.53,0005.66,0004.73
2022-05-01 16:15:00,,0823.7,5.01,0.00,26.4,25.4,00.0,35.2,28.2,13.3,0000.0,0012.49,0005.68,0004.74
2022-05-01 16:16:00,,0823.7,5.02,0.00,26.4,25.5,00.0,35.2,28.2,13.2,0000.0,0012.50,0005.71,0004.75
2022-05-01 16:17:00,,0823.7,5.00,0.00,26.4,25.5,00.0,35.2,28.2,13.2,0000.0,0012.40,0005.75,0004.79
2022-05-01 16:18:00,,0823.7,4.99,0.00,26.4,25.5,00.0,35.2,28.2,13.3,0000.0,0013.05,0005.81,0004.80
2022-05-01 16:19:00,,0823.7,5.01,0.00,26.4,25.5,00.0,35.2,28.2,13.2,0000.0,0013.00,0005.78,0004.81
2022-05-01 16:20:00,,0823.6,5.01,0.00,26.4,25.5,00.0,35.3,28.3,13.2,0000.0,0013.20,0005.78,0004.82
2022-05-01 16:21:00,,0823.7,5.00,0.00,26.4,25.5,00.0,35.3,28.3,13.1,0000.0,0013.39,0005.82,0004.83
2022-05-01 16:22:00,,0823.7,5.00,0.00,26.5,25.5,00.0,35.3,28.3,13.2,0000.0,0013.35,0005.82,0004.85
2022-05-01 16:23:00,,0823.7,5.01,0.00,26.5,25.5,00.0,35.3,28.3,13.1,0000.0,0013.68,0005.83,0004.87
2022-05-01 16:24:00,,0823.7,4.99,0.00,26.5,25.5,00.0,35.3,28.3,13.1,0000.0,0013.71,0005.86,0004.90
2022-05-01 16:25:00,,0823.7,4.99,0.00,26.5,25.5,00.0,35.3,28.3,13.2,0000.0,0012.61,0005.91,0004.92
2022-05-01 16:26:00,,0823.7,5.01,0.00,26.5,25.6,00.0,35.3,28.3,13.1,0000.0,0012.69,0005.97,0004.95
2022-05-01 16:27:00,,0823.7,4.99,0.00,26.5,25.6,00.0,35.3,28.3,13.0,0000.0,0012.84,0005.95,0004.95
2022-05-01 16:28:00,,0823.6,5.00,0.00,26.5,25.6,00.0,35.3,28.4,12.9,0000.0,0013.37,0005.97,0004.96
2022-05-01 16:29:00,,0823.7,4.99,0.00,26.5,25.6,00.0,35.4,28.4,12.9,0000.0,0012.77,0005.97,0004.97
2022-05-01 16:30:00,,0823.7,4.99,0.00,26.5,25.6,00.0,35.4,28.4,12.9,0000.0,0013.09,0006.04,0004.98
2022-05-01 16:31:00,,0823.7,5.02,0.00,26.6,25.6,00.0,35.4,28.4,12.8,0000.0,0013.07,0006.06,0004.99
2022-05-01 16:32:00,,0823.7,4.99,0.00,26.6,25.6,00.0,35.4,28.4,12.8,0000.0,0013.27,0006.04,0004.99
2022-05-01 16:33:00,,0823.7,4.99,0.00,26.6,25.6,00.0,35.4,28.4,12.8,0000.0,0013.70,0006.07,0005.00
2022-05-01 16:34:00,,0823.6,5.01,0.00,26.6,25.6,00.0,35.4,28.4,12.8,0000.0,0013.58,0006.12,0004.99
2022-05-01 16:35:00,,0823.6,4.99,0.00,26.6,25.6,00.0,35.4,28.5,12.7,0000.0,0013.19,0006.10,0004.97
2022-05-01 16:36:00,,0823.6,5.00,0.00,26.6,25.6,00.0,35.4,28.4,12.6,0000.0,0013.50,0006.02,0004.95
2022-05-01 16:37:00,,0823.6,5.01,0.00,26.6,25.7,00.0,35.4,28.4,12.5,0000.0,0014.10,0006.01,0004.93
2022-05-01 16:38:00,,0823.6,5.00,0.00,26.6,25.7,00.0,35.4,28.5,12.7,0000.0,0013.92,0006.05,0004.93
2022-05-01 16:39:00,,0823.6,5.00,0.00,26.6,25.7,00.0,35.5,28.5,12.6,0000.0,0013.11,0006.06,0004.92
2022-05-01 16:40:00,,0823.6,5.01,0.00,26.6,25.7,00.0,35.5,28.5,12.8,0000.0,0013.15,0006.05,0004.93
2022-05-01 16:41:00,,0823.5,4.99,0.00,26.6,25.7,00.0,35.5,28.5,12.9,0000.0,0013.31,0005.99,0004.93
2022-05-01 16:42:00,,0823.5,5.02,0.00,26.7,25.7,00.0,35.5,28.5,12.5,0000.0,0014.10,0005.96,0004.92
2022-05-01 16:43:00,,0823.6,5.00,0.00,26.7,25.7,00.0,35.5,28.5,12.4,0000.0,0013.82,0005.90,0004.91
2022-05-01 16:44:00,,0823.5,4.99,0.00,26.7,25.7,00.0,35.5,28.5,12.3,0000.0,0013.62,0005.88,0004.88
2022-05-01 16:45:00,,0823.6,5.01,0.00,26.7,25.8,00.0,35.5,28.5,12.3,0000.0,0013.35,0005.79,0004.85
2022-05-01 16:46:00,,0823.5,4.99,0.00,26.7,25.8,00.0,35.5,28.5,12.3,0000.0,0013.46,0005.74,0004.83
2022-05-01 16:47:00,,0823.5,5.00,0.00,26.7,25.8,00.0,35.5,28.5,12.4,0000.0,0013.32,0005.78,0004.83
2022-05-01 16:48:00,,0823.5,5.02,0.00,26.7,25.8,00.0,35.6,28.6,12.4,0000.0,0013.10,0005.74,0004.84
2022-05-01 16:49:00,,0823.5,5.00,0.00,26.7,25.8,00.0,35.6,28.6,12.5,0000.0,0014.23,0005.72,0004.82
2022-05-01 16:50:00,,0823.5,4.99,0.00,26.7,25.8,00.0,35.6,28.6,12.5,0000.0,0014.31,0005.67,0004.82
2022-05-01 16:51:00,,0823.5,5.01,0.00,26.7,25.8,00.0,35.6,28.6,12.5,0000.0,0014.69,0005.66,0004.82
2022-05-01 16:52:00,,0823.5,5.00,0.00,26.8,25.8,00.0,35.6,28.6,12.6,0000.0,0015.17,0005.71,0004.84
2022-05-01 16:53:00,,0823.4,4.99,0.00,26.8,25.9,00.0,35.6,28.6,12.5,0000.0,0015.55,0005.77,0004.88
2022-05-01 16:54:00,,0823.5,5.02,0.00,26.8,25.9,00.0,35.6,28.6,12.6,0000.0,0016.58,0005.86,0004.91
2022-05-01 16:55:00,,0823.4,4.98,0.00,26.8,25.9,00.0,35.6,28.6,12.5,0000.0,0016.48,0005.88,0004.94
2022-05-01 16:56:00,,0823.5,5.00,0.00,26.8,25.9,00.0,35.6,28.6,12.5,0000.0,0016.59,0005.93,0004.97
2022-05-01 16:57:00,,0823.4,4.99,0.00,26.8,25.9,00.0,35.7,28.6,12.4,0000.0,0016.71,0005.99,0005.00
2022-05-01 16:58:00,,0823.4,4.99,0.00,26.8,25.9,00.0,35.7,28.7,12.4,0000.0,0016.79,0006.00,0005.02
2022-05-01 16:59:00,,0823.4,5.01,0.00,26.8,25.9,00.0,35.7,28.7,12.4,0000.0,0016.21,0006.03,0005.03
